ハリントン彗星

51P/Harrington (2008)

English version
Home page
Updated on May 5, 2012

---------------------------------------------------------------------

・ プロフィール

・ 写真集

・ 軌道要素

Epoch 2008 June 23.0 TT = JDT 2454640.5
T 2008 June 18.40250 TT                                 MPC
q   1.6877773            (2000.0)            P               Q
n   0.13830457     Peri.  269.17071     +0.98797346     +0.12273738
a   3.7032102      Node    83.77545     -0.07459664     +0.91108891
e   0.5442394      Incl.    5.42830     -0.13543921     +0.39351306
P   7.13
From 788 observations 1994 May 1-2009 Feb. 21, mean residual 1".1.
     Nongravitational parameters A1 = +3.72, A2 = +0.0724.

・ 星図

・ 光度変化

        m1 =  6.5 + 5 logΔ + 30.0 log r  [ ,0]  (              〜2008年 6月18日)
        m1 = 10.0 + 5 logΔ + 15.0 log r  [0, ]  (2008年 6月18日〜              )

---------------------------------------------------------------------

軌道要素はM.P.E.C. 2012-J16に掲載されたものです。
星図はステラナビゲータ Ver.8 (アストロアーツ) で作成したものです。
光度グラフはComet for Windowsで作成したものです。

---------------------------------------------------------------------

Copyright(C) Seiichi Yoshida (comet@aerith.net). All rights reserved.